FJL842 OPKC-OPLA

Flight info

Callsign FJL842
Flight time N/A
Altitude 37000
Route BADUL R471 RK J112 MOLTA J166 VEREN
Aircraft A320/M-SDE3FGHIRWY/LB1

Departure

Time 2026-04-28 18:00
Airport Jinnah International Airport (OPKC)

Arrival

Time N/A
Airport Allama Iqbal International Airport (OPLA)
Time Latitude Longitude Altitude Speed Heading
2026-04-28 17:31 24.90192 67.16676 100 ft 0 kts 241°
2026-04-28 17:51 24.90196 67.16683 101 ft 4 kts 242°
2026-04-28 17:52 24.90208 67.16710 100 ft 4 kts 248°
2026-04-28 17:52 24.90216 67.16738 100 ft 4 kts 267°
2026-04-28 17:52 24.90207 67.16764 99 ft 0 kts 345°
2026-04-28 17:56 24.90213 67.16762 100 ft 3 kts 345°
2026-04-28 17:56 24.90258 67.16749 101 ft 9 kts 345°
2026-04-28 17:56 24.90329 67.16727 101 ft 12 kts 345°
2026-04-28 17:56 24.90422 67.16699 101 ft 15 kts 346°
2026-04-28 17:57 24.90488 67.16762 102 ft 14 kts 79°
2026-04-28 17:57 24.90516 67.16861 101 ft 13 kts 71°
2026-04-28 17:57 24.90541 67.16950 102 ft 11 kts 73°
2026-04-28 17:57 24.90591 67.17011 102 ft 13 kts
2026-04-28 17:58 24.90684 67.16988 106 ft 14 kts 348°
2026-04-28 17:58 24.90744 67.16959 108 ft 6 kts 288°
2026-04-28 17:58 24.90736 67.16927 107 ft 0 kts 254°
2026-04-28 17:59 24.90722 67.16870 106 ft 34 kts 255°
2026-04-28 17:59 24.90587 67.16327 104 ft 109 kts 254°
2026-04-28 18:00 24.90353 67.15324 213 ft 155 kts 258°
2026-04-28 18:00 24.90099 67.14126 807 ft 166 kts 257°
2026-04-28 18:00 24.89833 67.12817 1282 ft 189 kts 259°
2026-04-28 18:00 24.89961 67.11382 2023 ft 196 kts 294°
2026-04-28 18:01 24.91037 67.10318 2453 ft 231 kts 333°
2026-04-28 18:01 24.92720 67.10262 3040 ft 259 kts 13°
2026-04-28 18:01 24.94326 67.11330 3521 ft 284 kts 38°
2026-04-28 18:01 24.95842 67.12793 4155 ft 293 kts 39°
2026-04-28 18:02 24.97374 67.14295 4964 ft 295 kts 39°
2026-04-28 18:02 24.98906 67.15806 5780 ft 296 kts 39°
2026-04-28 18:02 25.00444 67.17327 6590 ft 297 kts 39°
2026-04-28 18:02 25.01988 67.18855 7359 ft 298 kts 39°
2026-04-28 18:03 25.03263 67.20116 8015 ft 299 kts 38°
2026-04-28 18:03 25.04795 67.21627 8868 ft 298 kts 39°
2026-04-28 18:03 25.06339 67.23148 9715 ft 298 kts 38°
2026-04-28 18:03 25.07916 67.24700 10122 ft 314 kts 38°
2026-04-28 18:04 25.09611 67.26366 10302 ft 338 kts 39°
2026-04-28 18:04 25.10817 67.27551 10484 ft 349 kts 39°
2026-04-28 18:04 25.13251 67.29956 11174 ft 359 kts 39°
2026-04-28 18:04 25.15124 67.31812 11754 ft 364 kts 39°
2026-04-28 18:05 25.17020 67.33690 12338 ft 369 kts 39°
2026-04-28 18:05 25.18325 67.34979 12738 ft 373 kts 39°
2026-04-28 18:05 25.20266 67.36903 13323 ft 378 kts 39°
2026-04-28 18:05 25.22238 67.38862 13858 ft 383 kts 39°
2026-04-28 18:06 25.24225 67.40837 14433 ft 386 kts 39°
2026-04-28 18:06 25.26204 67.42804 15003 ft 389 kts 39°
2026-04-28 18:06 25.28227 67.44812 15566 ft 392 kts 39°
2026-04-28 18:06 25.30267 67.46835 16148 ft 395 kts 39°
2026-04-28 18:07 25.32317 67.48867 16697 ft 398 kts 39°
2026-04-28 18:07 25.34385 67.50920 17250 ft 401 kts 39°
2026-04-28 18:07 25.36472 67.52994 17800 ft 404 kts 39°
2026-04-28 18:07 25.38568 67.55077 18295 ft 407 kts 39°
2026-04-28 18:08 25.40677 67.57175 18787 ft 409 kts 38°
2026-04-28 18:08 25.42799 67.59286 19269 ft 411 kts 38°
2026-04-28 18:08 25.44930 67.61408 19740 ft 414 kts 38°
2026-04-28 18:08 25.47071 67.63541 20222 ft 416 kts 38°
2026-04-28 18:09 25.49234 67.65694 20695 ft 418 kts 38°
2026-04-28 18:09 25.51407 67.67855 21153 ft 421 kts 38°
2026-04-28 18:09 25.53592 67.70029 21611 ft 423 kts 38°
2026-04-28 18:09 25.55785 67.72218 22076 ft 426 kts 38°
2026-04-28 18:10 25.57990 67.74425 22530 ft 428 kts 37°
2026-04-28 18:10 25.60206 67.76643 22989 ft 431 kts 37°
2026-04-28 18:10 25.62436 67.78874 23409 ft 433 kts 37°
2026-04-28 18:10 25.64679 67.81118 23739 ft 436 kts 37°
2026-04-28 18:11 25.66935 67.83378 24096 ft 438 kts 37°
2026-04-28 18:11 25.69204 67.85651 24456 ft 441 kts 37°
2026-04-28 18:11 25.71480 67.87930 24807 ft 443 kts 37°
2026-04-28 18:11 25.73777 67.90233 25171 ft 446 kts 37°
2026-04-28 18:12 25.76081 67.92544 25516 ft 448 kts 37°
2026-04-28 18:12 25.78396 67.94870 25842 ft 451 kts 37°
2026-04-28 18:12 25.80729 67.97213 26183 ft 453 kts 37°
2026-04-28 18:12 25.83077 67.99570 26515 ft 456 kts 37°
2026-04-28 18:13 25.85408 68.01909 26841 ft 459 kts 37°
2026-04-28 18:13 25.87789 68.04300 27174 ft 461 kts 37°
2026-04-28 18:13 25.90173 68.06698 27496 ft 464 kts 37°
2026-04-28 18:13 25.92570 68.09109 27830 ft 466 kts 37°
2026-04-28 18:14 25.94984 68.11541 28143 ft 469 kts 37°
2026-04-28 18:14 25.97404 68.13984 28442 ft 471 kts 37°
2026-04-28 18:14 25.99837 68.16440 28732 ft 473 kts 37°
2026-04-28 18:14 26.02278 68.18906 29034 ft 476 kts 37°
2026-04-28 18:15 26.04737 68.21390 29316 ft 478 kts 37°
2026-04-28 18:15 26.07201 68.23883 29616 ft 481 kts 37°
2026-04-28 18:15 26.09687 68.26397 29808 ft 485 kts 37°
2026-04-28 18:15 26.12186 68.28926 30042 ft 487 kts 37°
2026-04-28 18:16 26.14691 68.31462 30340 ft 486 kts 37°
2026-04-28 18:16 26.17187 68.33992 30722 ft 484 kts 37°
2026-04-28 18:16 26.19674 68.36515 31099 ft 482 kts 37°
2026-04-28 18:16 26.22178 68.38975 31466 ft 477 kts 32°
2026-04-28 18:17 26.24803 68.41208 31834 ft 474 kts 31°
2026-04-28 18:17 26.27387 68.43397 32194 ft 472 kts 31°
2026-04-28 18:17 26.29992 68.45605 32561 ft 470 kts 31°
2026-04-28 18:17 26.32589 68.47808 32922 ft 468 kts 31°
2026-04-28 18:18 26.35176 68.50003 33289 ft 466 kts 31°
2026-04-28 18:18 26.37750 68.52192 33643 ft 464 kts 31°
2026-04-28 18:18 26.40315 68.54380 33926 ft 464 kts 31°
2026-04-28 18:18 26.42050 68.55859 34051 ft 465 kts 31°
2026-04-28 18:19 26.45466 68.58774 34328 ft 466 kts 31°
2026-04-28 18:19 26.48045 68.60973 34566 ft 466 kts 30°
2026-04-28 18:19 26.50621 68.63171 34805 ft 465 kts 30°
2026-04-28 18:19 26.53191 68.65364 35034 ft 465 kts 30°
2026-04-28 18:20 26.55729 68.67533 35269 ft 464 kts 30°
2026-04-28 18:20 26.58291 68.69723 35491 ft 464 kts 30°
2026-04-28 18:20 26.60853 68.71910 35716 ft 463 kts 30°
2026-04-28 18:20 26.63416 68.74097 35936 ft 462 kts 30°
2026-04-28 18:21 26.65962 68.76265 36150 ft 462 kts 30°
2026-04-28 18:21 26.68518 68.78444 36341 ft 461 kts 29°
2026-04-28 18:21 26.71074 68.80624 36543 ft 461 kts 29°
2026-04-28 18:21 26.73621 68.82796 36619 ft 461 kts 29°
2026-04-28 18:22 26.78730 68.87152 36641 ft 461 kts 29°
2026-04-28 18:22 26.83828 68.91507 36633 ft 460 kts 29°
2026-04-28 18:23 26.88894 68.95839 36636 ft 460 kts 29°
2026-04-28 18:23 26.93976 69.00195 36641 ft 460 kts 29°
2026-04-28 18:24 26.98238 69.03843 36645 ft 460 kts 29°
2026-04-28 18:24 27.04154 69.08918 36647 ft 460 kts 29°
2026-04-28 18:25 27.09245 69.13289 36657 ft 461 kts 29°
2026-04-28 18:26 27.16892 69.19867 36672 ft 461 kts 29°
2026-04-28 18:26 27.21953 69.24239 36655 ft 462 kts 29°
2026-04-28 18:27 27.27045 69.28645 36665 ft 461 kts 29°
2026-04-28 18:27 27.32120 69.33103 36660 ft 462 kts 30°
2026-04-28 18:28 27.37154 69.37617 36654 ft 463 kts 30°
2026-04-28 18:28 27.42163 69.42106 36657 ft 463 kts 30°
2026-04-28 18:29 27.47219 69.46613 36647 ft 463 kts 30°
2026-04-28 18:29 27.52277 69.51119 36645 ft 464 kts 30°
2026-04-28 18:30 27.57331 69.55639 36665 ft 464 kts 31°
2026-04-28 18:30 27.62383 69.60174 36659 ft 463 kts 31°
2026-04-28 18:31 27.67431 69.64695 36652 ft 463 kts 31°
2026-04-28 18:31 27.72483 69.69218 36662 ft 463 kts 31°
2026-04-28 18:32 27.77534 69.73754 36648 ft 464 kts 31°
2026-04-28 18:32 27.82587 69.78309 36645 ft 465 kts 31°
2026-04-28 18:33 27.87641 69.82873 36646 ft 465 kts 31°
2026-04-28 18:33 27.92709 69.87441 36662 ft 465 kts 31°
2026-04-28 18:34 27.97766 69.92006 36649 ft 465 kts 31°
2026-04-28 18:34 28.02800 69.96551 36650 ft 465 kts 31°
2026-04-28 18:35 28.07859 70.01125 36668 ft 465 kts 31°
2026-04-28 18:35 28.12915 70.05710 36653 ft 465 kts 31°
2026-04-28 18:36 28.17967 70.10301 36659 ft 465 kts 31°
2026-04-28 18:36 28.23014 70.14892 36636 ft 465 kts 31°
2026-04-28 18:37 28.28058 70.19489 36633 ft 465 kts 31°
2026-04-28 18:37 28.33103 70.24089 36647 ft 465 kts 31°
2026-04-28 18:38 28.38001 70.28940 36651 ft 474 kts 39°
2026-04-28 18:38 28.42462 70.34395 36646 ft 474 kts 40°
2026-04-28 18:39 28.46948 70.39894 36643 ft 475 kts 39°
2026-04-28 18:39 28.51448 70.45419 36639 ft 475 kts 40°
2026-04-28 18:40 28.55939 70.50940 36644 ft 475 kts 40°
2026-04-28 18:40 28.60440 70.56467 36655 ft 475 kts 40°
2026-04-28 18:41 28.64932 70.61987 36653 ft 475 kts 40°
2026-04-28 18:41 28.69426 70.67516 36665 ft 474 kts 40°
2026-04-28 18:42 28.73907 70.73038 36658 ft 474 kts 40°
2026-04-28 18:42 28.78354 70.78535 36650 ft 474 kts 40°
2026-04-28 18:43 28.82830 70.84070 36646 ft 474 kts 40°
2026-04-28 18:43 28.87299 70.89611 36658 ft 474 kts 40°
2026-04-28 18:44 28.91756 70.95148 36654 ft 474 kts 40°
2026-04-28 18:44 28.98460 71.03466 36645 ft 474 kts 40°
2026-04-28 18:45 29.02918 71.09016 36639 ft 474 kts 40°